Location: Tel Aviv
(32.0670°N, 34.7670°E)
Time: 07:27:25
(UTC+02:00)

Explorer 11/Cluster Stage 4 - All Passes

Search period start: 29 November 2023 00:00
Search period end: 09 December 2023 00:00
Orbit: 465 x 1228 km, 28.8° (Epoch: 28 November)

Date Brightness Start Highest point End Pass type
(mag) Time Alt. Az. Time Alt. Az. Time Alt. Az.
29 Nov - 14:06:07 10° SSW 14:10:24 20° SSE 14:14:07 10° ESE daylight
29 Nov - 15:53:22 10° WSW 15:58:21 41° S 16:02:27 10° E daylight
29 Nov - 17:41:46 10° WSW 17:46:11 55° S 17:49:55 10° ESE visible
29 Nov - 19:30:15 10° W 19:33:46 33° SSW 19:37:03 10° SE visible
29 Nov - 21:20:25 10° SW 21:21:07 10° SSW 21:21:48 10° SSW night (unlit)
30 Nov - 13:49:35 10° SSW 13:54:30 23° SSE 13:58:41 10° ESE daylight
30 Nov - 15:37:11 10° WSW 15:42:31 45° S 15:46:51 10° E daylight
30 Nov - 17:25:45 10° W 17:30:24 56° S 17:34:17 10° ESE visible
30 Nov - 19:14:25 10° W 19:18:01 31° SSW 19:21:17 10° SE visible
01 Dec - 13:33:05 10° SW 13:38:34 27° SSE 13:43:11 10° ESE daylight
01 Dec - 15:20:59 10° WSW 15:26:39 50° S 15:31:13 10° E daylight
01 Dec - 17:09:42 10° W 17:14:36 57° S 17:18:38 10° ESE visible
01 Dec - 18:58:32 10° W 19:02:13 30° SSW 19:05:31 10° SE visible
02 Dec - 11:31:41 10° S 11:34:22 12° SSE 11:36:54 10° SE daylight
02 Dec - 13:16:37 10° SW 13:22:35 31° SSE 13:27:35 10° E daylight
02 Dec - 15:04:44 10° WSW 15:10:45 53° S 15:15:35 10° E daylight
02 Dec - 16:53:37 10° W 16:58:47 57° S 17:02:59 10° ESE visible
02 Dec - 18:42:36 10° W 18:46:25 28° SSW 18:49:44 10° SE visible
03 Dec - 11:14:29 10° S 11:18:18 15° SSE 11:21:52 10° ESE daylight
03 Dec - 13:00:10 10° SW 13:06:34 34° SSE 13:11:57 10° E daylight
03 Dec - 14:48:29 10° WSW 14:54:50 57° S 14:59:54 10° E daylight
03 Dec - 16:37:30 10° W 16:42:56 57° S 16:47:18 10° ESE daylight
03 Dec - 18:26:39 10° W 18:30:34 27° SSW 18:33:58 10° SE visible
04 Dec - 10:57:34 10° S 11:02:12 17° SSE 11:06:32 10° ESE daylight
04 Dec - 12:43:45 10° SW 12:50:31 38° SSE 12:56:14 10° E daylight
04 Dec - 14:32:13 10° WSW 14:38:52 60° S 14:44:12 10° E daylight
04 Dec - 16:21:19 10° W 16:27:03 57° S 16:31:37 10° ESE daylight
04 Dec - 18:10:38 10° W 18:14:41 26° SSW 18:18:10 10° SE visible
05 Dec - 10:40:48 10° SSW 10:46:04 19° SSE 10:51:00 10° ESE daylight
05 Dec - 12:27:21 10° SW 12:34:26 42° SSE 12:40:29 10° E daylight
05 Dec - 14:15:57 10° WSW 14:22:52 63° S 14:28:28 10° E daylight
05 Dec - 16:05:08 10° W 16:11:08 56° S 16:15:54 10° ESE daylight
05 Dec - 17:54:36 10° W 17:58:47 25° SSW 18:02:21 10° SSE visible
06 Dec - 10:24:08 10° SSW 10:29:54 22° SSE 10:35:20 10° ESE daylight
06 Dec - 12:10:57 10° SW 12:18:19 45° SSE 12:24:41 10° E daylight
06 Dec - 13:59:39 10° WSW 14:06:51 65° S 14:12:42 10° E daylight
06 Dec - 15:48:54 10° W 15:55:10 56° S 16:00:10 10° ESE daylight
06 Dec - 17:38:32 10° W 17:42:50 24° SSW 17:46:30 10° SSE visible
07 Dec - 10:07:34 10° SSW 10:13:42 24° SSE 10:19:34 10° ESE daylight
07 Dec - 11:54:35 10° SW 12:02:09 49° SSE 12:08:49 10° E daylight
07 Dec - 13:43:21 10° WSW 13:50:47 67° S 13:56:54 10° E daylight
07 Dec - 15:32:39 10° W 15:39:10 55° SSW 15:44:24 10° ESE daylight
07 Dec - 17:22:26 10° WSW 17:26:52 23° SSW 17:30:38 10° SSE visible
08 Dec - 09:51:03 10° SSW 09:57:29 26° SSE 10:03:42 10° E daylight
08 Dec - 11:38:15 10° WSW 11:45:58 52° SSE 11:52:55 10° E daylight
08 Dec - 13:27:04 10° W 13:34:41 68° S 13:41:03 10° E daylight
08 Dec - 15:16:23 10° W 15:23:08 54° SSW 15:28:35 10° ESE daylight
08 Dec - 17:06:18 10° WSW 17:10:51 23° SSW 17:14:44 10° SSE visible
